GFSGBSN_700_spd_228.txt.gz
Wind_Speed
5 5 4 4 4 5 5 7 8 9 10 12 13 15 17 19 21 23 24 25 26 27 28 31 33 32 32 33 32 32 31 27 26 32 34 33 34 31 30 26 25 33 26 30 30 27 28
6 6 5 5 5 5 6 7 8 10 11 13 14 16 18 20 22 23 25 27 29 31 31 32 33 34 34 37 33 34 33 32 32 31 26 33 35 38 35 31 33 22 31 29 32 32 31
6 6 6 6 6 7 7 8 9 10 11 13 15 17 20 22 23 25 26 28 30 31 34 35 35 36 37 33 32 33 31 32 34 34 32 28 34 34 35 35 36 34 34 30 35 35 35
7 8 7 7 7 8 8 9 10 11 13 15 17 18 20 22 23 25 27 29 31 32 33 34 37 39 41 38 35 32 36 35 32 36 35 35 30 33 37 34 31 29 27 31 30 27 32
10 9 10 10 10 10 10 11 11 12 13 14 16 18 21 23 24 26 27 27 28 28 27 28 30 32 39 37 37 36 34 37 38 35 38 37 37 31 32 33 23 24 31 32 29 24 24
10 11 12 12 11 12 12 12 13 13 14 16 18 21 23 25 27 28 27 26 26 26 26 28 30 24 22 27 28 22 29 37 37 40 38 41 39 37 31 28 40 36 32 32 28 23 22
11 11 11 11 11 12 12 13 14 15 17 19 21 23 25 28 30 30 27 24 25 29 23 24 28 31 30 29 28 27 31 27 36 40 44 46 34 40 43 39 35 33 27 29 29 28 19
9 10 10 11 12 13 14 15 16 17 19 20 23 25 27 29 31 31 30 28 28 29 31 24 22 23 27 28 35 26 27 27 27 37 35 33 46 45 32 32 35 34 34 27 20 20 20
9 10 11 11 12 13 14 15 17 18 19 21 23 24 26 27 29 29 28 26 26 27 27 14 17 19 23 21 24 26 25 22 21 23 32 44 41 35 38 34 33 34 37 32 27 16 16
9 10 11 12 13 14 15 17 18 20 21 22 23 24 24 25 25 26 25 24 26 25 13 9 19 17 20 24 16 10 26 18 15 21 22 31 38 35 39 37 33 36 31 29 27 26 29
9 10 11 12 13 14 16 18 19 19 20 21 23 24 24 24 24 24 23 21 21 16 4 10 14 13 18 22 17 1 12 29 25 12 17 23 23 36 41 36 34 39 26 25 24 27 25
7 9 10 11 13 15 16 18 18 19 20 21 22 23 24 23 22 22 20 20 16 4 2 7 8 16 20 19 18 9 12 21 24 27 17 21 12 13 30 35 30 23 25 22 22 23 23
6 8 10 12 13 15 16 17 18 18 19 20 21 22 22 23 20 19 17 16 4 1 7 5 13 21 19 19 13 10 7 6 16 21 29 31 28 22 15 11 28 28 25 21 18 16 22
6 7 9 11 13 14 15 16 17 18 19 20 20 21 21 21 20 17 14 11 2 7 9 12 16 18 8 16 12 14 3 9 10 14 13 25 25 30 26 29 21 36 39 24 19 17 24
6 7 8 9 11 13 14 15 16 17 18 19 19 20 20 20 20 16 11 4 3 8 8 13 19 10 8 13 20 19 19 5 7 13 13 11 15 16 14 23 28 26 35 43 41 34 20
9 8 8 9 11 12 14 15 15 16 18 19 18 19 19 19 19 16 9 5 6 10 13 11 9 8 13 18 23 20 13 16 14 8 11 15 20 18 11 13 23 30 26 29 34 25 28
11 9 8 9 10 12 14 15 15 15 17 18 18 18 17 17 17 13 8 6 11 9 12 6 8 14 18 24 17 18 8 12 8 7 6 15 17 13 15 22 22 24 30 31 28 36 20
13 11 10 9 9 11 13 14 15 15 16 17 18 16 14 16 15 14 11 15 14 11 12 13 12 12 11 13 14 12 12 10 13 13 11 4 7 23 28 18 19 21 17 31 34 30 35
15 13 12 11 10 10 12 14 14 15 15 17 18 16 14 16 11 15 16 16 17 17 13 10 11 12 13 17 14 8 10 11 13 13 10 19 4 12 10 19 23 24 26 21 25 35 39
16 15 14 12 11 11 11 12 14 14 14 15 17 14 15 11 16 16 17 14 11 14 15 16 15 14 21 14 13 15 15 14 18 18 20 22 16 15 15 21 11 13 20 29 25 14 21
18 17 15 14 13 12 12 11 12 13 13 14 14 15 16 13 17 16 16 15 14 14 12 12 9 9 15 18 20 15 13 12 13 13 11 14 19 16 20 20 22 22 22 22 26 26 20
19 18 17 16 15 14 13 12 12 12 12 13 13 16 17 16 14 16 17 16 14 12 13 13 14 17 20 21 20 29 28 26 20 18 16 16 17 13 21 19 21 23 21 23 24 28 30
20 19 19 18 17 15 15 14 14 14 14 13 13 14 18 18 17 17 16 16 16 16 16 13 15 23 25 22 26 26 28 29 34 28 25 22 17 18 27 18 18 18 31 31 33 32 28
21 20 20 19 18 17 17 16 15 14 16 15 14 15 18 23 21 18 17 17 17 19 21 18 19 19 21 24 26 27 27 26 27 31 32 32 28 22 28 21 16 28 22 25 29 32 32
22 21 21 20 19 18 18 17 17 16 16 17 16 16 17 24 23 20 20 20 19 20 23 19 14 18 23 22 20 14 14 14 14 13 23 32 30 25 20 25 24 27 30 25 22 30 24
23 23 22 21 21 20 19 18 18 17 17 19 19 18 18 24 23 23 23 22 22 21 21 21 23 15 17 13 9 11 11 14 7 7 7 10 25 30 23 14 14 26 26 18 20 33 33
24 23 23 22 22 21 20 20 19 18 18 19 20 22 21 23 21 28 28 24 24 24 26 22 18 16 9 9 12 16 22 20 21 18 15 8 13 26 30 25 23 28 27 21 17 27 23
25 24 24 23 23 22 21 21 20 19 19 19 20 22 24 26 25 22 27 30 26 23 24 15 17 5 7 5 7 8 7 6 11 15 16 13 10 15 20 23 17 6 10 11 21 30 27
25 25 25 24 23 23 23 22 20 19 18 20 21 24 27 28 27 29 29 19 21 22 23 22 20 12 8 11 10 9 16 19 18 20 12 13 18 12 11 18 23 26 28 28 29 33 35

GFSGBSN_700_spd_231.txt.gz
Wind_Speed
2 2 2 1 1 1 1 1 2 3 5 6 8 9 12 14 15 17 19 21 22 23 24 25 26 25 24 26 26 35 29 30 27 23 26 29 31 25 30 24 25 30 28 27 27 25 21
2 2 3 3 3 3 3 3 4 5 6 7 9 11 13 15 17 19 20 22 22 24 25 25 26 27 28 28 29 28 30 31 31 31 29 24 29 22 28 29 29 27 31 32 28 27 28
2 2 3 3 3 3 3 4 5 5 6 8 10 13 14 16 17 19 20 22 23 24 26 26 27 27 28 28 30 30 28 29 31 32 32 30 29 32 24 24 26 31 32 26 30 31 28
3 3 3 2 2 2 3 4 4 5 7 9 11 12 14 15 16 17 19 21 21 22 24 26 27 28 29 29 30 30 32 31 32 33 32 34 34 32 36 24 20 24 31 33 36 30 31
4 5 5 5 5 5 5 5 6 6 7 8 10 12 14 15 16 17 19 21 22 21 20 22 25 25 27 26 19 23 28 35 34 34 34 33 34 34 22 30 27 27 32 37 38 32 34
5 5 6 5 5 5 6 6 7 7 8 10 12 14 15 16 17 18 21 22 23 20 20 19 18 18 19 25 30 26 24 26 29 34 32 36 31 29 29 29 39 37 40 40 41 30 35
4 4 5 5 5 6 6 7 8 9 9 11 13 15 17 19 20 22 22 24 26 23 21 18 17 21 23 27 28 26 27 28 27 27 28 30 36 38 39 38 37 35 37 38 31 36 31
3 3 3 4 5 6 7 8 9 11 12 13 15 17 19 21 24 26 27 27 26 23 19 15 14 17 23 29 32 26 24 25 23 29 26 32 42 42 36 36 37 40 38 40 34 28 33
2 2 3 4 5 6 8 9 10 12 13 15 17 19 20 22 24 25 27 26 26 27 20 10 15 20 23 27 26 22 19 21 22 24 30 37 41 35 41 40 38 40 40 39 37 28 28
1 2 3 4 5 7 9 10 11 13 14 15 17 18 20 22 22 25 25 25 24 22 6 6 11 14 16 21 12 25 16 20 22 27 29 32 33 40 39 45 39 42 35 32 34 33 33
2 2 3 4 6 7 8 10 11 12 13 15 16 17 18 21 22 22 22 21 21 14 2 9 10 15 20 21 25 18 15 12 24 18 19 33 31 34 45 39 39 44 31 29 31 34 32
3 3 3 5 6 7 9 10 11 13 14 15 16 16 17 19 20 20 19 18 14 7 3 8 9 15 19 17 18 13 14 14 18 23 24 24 22 31 31 39 37 32 34 30 29 30 27
6 5 4 5 6 7 8 10 11 13 14 15 15 16 16 18 19 19 18 15 6 4 9 6 13 17 17 15 18 24 20 14 11 18 26 25 27 21 21 19 31 34 28 22 24 22 20
8 7 6 6 7 9 9 11 12 13 14 14 15 15 15 16 17 17 14 9 4 4 8 12 15 18 14 13 17 21 20 20 11 15 20 28 33 31 25 24 24 33 39 31 21 19 23
12 9 8 7 7 8 9 10 12 14 14 14 14 13 14 14 15 15 12 2 2 5 9 14 17 9 8 13 19 21 19 15 14 15 16 22 25 22 29 35 28 31 36 41 41 40 27
15 12 11 9 8 8 9 10 10 12 14 14 14 13 12 13 14 13 8 3 2 7 10 9 8 6 14 19 21 20 18 11 13 14 10 14 24 16 12 19 26 35 30 29 37 25 29
17 15 13 12 10 9 8 9 10 12 13 14 13 13 11 12 12 12 8 5 5 6 8 5 9 16 16 18 16 18 13 11 9 11 8 15 15 22 18 23 22 23 32 36 32 33 20
18 17 16 14 12 11 9 9 9 10 12 13 13 11 9 12 8 11 11 11 13 6 9 12 13 11 12 13 17 16 18 16 14 13 16 10 10 17 25 22 20 29 24 20 34 34 36
20 19 18 16 14 13 10 9 9 10 11 13 13 12 7 12 7 12 12 12 12 9 8 7 9 11 14 15 16 11 14 15 16 11 11 11 6 14 16 21 25 23 30 22 22 28 34
21 20 19 18 16 14 13 10 9 9 11 12 14 11 11 5 12 11 13 11 9 8 11 10 12 13 13 16 12 16 20 20 20 18 18 17 15 18 21 22 15 18 18 25 29 21 22
23 21 20 19 18 16 15 12 11 10 10 11 12 13 12 11 14 12 12 12 11 9 8 9 7 7 12 16 19 19 16 23 22 20 14 16 19 18 23 25 23 21 23 22 27 32 22
24 23 22 21 20 19 17 15 13 12 10 11 11 14 15 14 12 13 12 12 11 8 10 9 13 14 16 18 20 30 25 22 24 21 18 17 21 19 25 22 22 25 25 24 27 26 33
24 23 22 22 21 20 19 18 15 14 13 12 10 11 16 17 12 10 12 11 9 13 15 10 11 15 20 21 21 24 25 26 28 29 26 24 27 24 32 23 23 20 30 23 26 28 29
25 25 24 23 22 22 21 20 18 16 15 14 12 12 15 18 15 13 13 14 14 14 19 20 18 19 17 22 29 28 24 26 25 28 27 30 26 24 29 24 21 30 24 24 29 29 28
27 26 25 24 24 23 23 22 20 18 17 16 14 13 14 18 18 17 15 15 17 16 17 18 18 18 17 20 21 15 13 11 14 18 19 25 26 27 28 28 32 32 26 25 28 31 25
27 26 26 25 24 23 23 23 22 20 19 18 17 15 15 18 18 18 17 18 15 18 18 12 12 15 15 12 7 9 8 15 8 7 6 12 22 27 24 21 16 24 19 20 17 18 15
28 27 26 25 25 24 24 24 23 22 20 20 18 16 17 19 16 19 21 15 16 18 20 18 11 11 8 5 9 12 15 14 13 14 17 16 14 25 29 26 24 21 16 14 22 16 20
28 27 27 26 25 25 24 23 23 23 22 21 20 19 20 20 20 17 20 23 25 21 19 13 19 8 7 6 7 9 8 9 11 15 14 20 19 18 14 18 22 16 18 15 16 27 25
28 28 27 26 25 25 25 24 24 23 22 22 21 21 23 24 21 22 29 17 25 25 17 18 21 10 7 8 8 9 13 17 22 29 20 25 15 19 16 17 21 23 16 23 26 27 23

GFSGBSN_700_spd_234.txt.gz
Wind_Speed
1 1 0 0 1 1 1 1 1 2 3 4 5 6 8 10 11 12 13 14 15 16 17 18 20 20 21 18 19 29 23 27 29 25 20 22 26 23 29 26 25 28 29 29 32 28 25
1 1 0 0 1 1 1 0 1 2 2 3 4 5 7 9 11 12 13 14 16 17 17 18 18 20 20 18 26 29 23 24 26 30 30 27 21 20 27 25 27 29 26 31 29 30 26
2 1 1 1 1 2 2 2 2 3 3 4 5 6 8 9 10 12 13 14 15 17 18 18 19 20 19 16 24 26 26 28 27 28 30 29 28 28 23 28 25 27 33 32 31 35 34
2 2 2 2 2 2 3 4 4 4 5 6 7 9 9 10 12 13 13 14 15 16 17 18 19 19 19 20 23 25 27 28 29 31 31 30 29 33 34 31 25 18 27 37 38 33 29
1 1 1 1 2 3 4 4 5 6 6 7 8 9 10 12 14 16 17 16 17 17 16 16 15 14 11 17 17 20 24 26 26 30 31 31 32 33 32 25 27 31 32 35 41 36 33
2 1 1 2 3 3 4 4 4 5 5 6 7 9 10 12 14 17 18 19 18 15 12 12 4 11 12 19 23 24 25 26 27 26 27 26 27 32 27 27 36 37 36 42 41 33 37
3 1 0 2 2 3 3 3 3 4 5 6 7 8 10 11 13 15 16 16 20 21 18 12 10 9 13 18 22 21 25 28 24 27 26 21 27 36 34 34 39 34 35 41 42 33 36
4 2 1 2 2 1 2 2 3 4 5 6 7 8 10 12 14 17 19 21 21 18 14 10 13 17 21 24 22 20 24 25 19 22 21 25 36 36 32 34 36 37 41 43 38 35 36
4 3 3 3 2 2 2 2 3 4 6 7 8 10 11 13 15 17 21 22 22 21 8 12 17 19 23 23 20 21 24 18 22 25 24 30 32 31 36 37 40 42 43 40 40 33 34
5 4 3 3 3 2 2 3 4 6 7 8 9 10 12 14 15 19 22 22 21 16 9 7 11 12 17 19 10 18 19 21 24 23 24 29 27 32 35 42 39 45 40 36 37 32 34
8 6 5 4 3 3 3 4 6 7 8 9 10 11 12 15 16 18 19 19 17 8 3 11 8 16 20 16 19 23 23 27 23 25 22 31 25 31 35 40 39 44 38 38 37 35 35
10 8 6 5 4 4 4 5 6 7 8 9 10 12 12 13 14 17 18 17 9 7 4 7 9 17 17 14 17 24 25 19 26 23 23 30 30 27 24 24 37 37 36 40 38 32 24
12 10 8 7 5 4 4 5 6 7 8 9 10 10 11 14 15 15 16 13 7 6 9 7 15 17 16 15 17 20 24 26 18 29 19 24 27 29 25 25 27 32 35 21 27 20 17
14 12 11 9 7 5 5 6 7 7 7 8 9 10 11 11 13 14 14 14 7 4 7 12 16 18 13 11 16 22 23 23 20 20 24 25 22 19 22 23 22 27 35 29 20 16 20
17 16 14 11 9 7 6 7 8 8 8 8 8 9 10 11 13 12 13 7 4 4 9 14 16 8 8 14 21 21 21 11 13 17 17 22 23 23 18 24 28 24 33 36 37 34 23
20 19 17 14 12 9 9 8 9 8 8 9 10 9 8 9 10 10 10 5 3 5 9 8 10 6 18 20 19 20 19 11 16 17 16 16 28 23 21 24 20 33 29 25 27 22 23
23 22 20 18 15 12 10 9 9 9 9 9 9 10 9 8 9 8 8 5 4 5 8 6 7 14 15 18 16 18 16 13 14 15 16 21 12 29 24 16 14 16 25 32 32 26 14
25 23 23 20 18 15 13 10 10 9 9 9 9 9 8 7 6 8 8 8 9 5 6 9 10 12 12 17 18 18 17 13 18 15 19 15 13 18 27 28 22 17 25 31 14 27 33
27 25 24 22 21 18 15 13 11 10 9 10 10 9 5 8 3 8 8 9 9 6 7 6 8 11 12 13 15 10 18 18 19 18 18 17 8 21 22 12 12 11 21 17 14 24 29
29 27 25 24 23 21 18 15 13 12 11 10 9 7 6 7 6 9 8 7 5 11 7 7 9 12 13 12 14 15 22 18 19 21 19 17 16 18 22 23 19 27 33 23 23 12 16
29 28 26 25 24 22 20 17 16 14 13 11 10 8 8 7 10 8 9 9 9 7 8 8 7 7 11 17 20 21 16 26 23 21 14 13 18 18 23 26 24 23 22 28 23 25 25
31 29 28 27 25 24 22 20 19 16 14 13 11 10 9 9 9 11 10 8 9 7 10 10 13 15 16 18 18 30 27 23 22 23 15 15 21 21 35 26 25 26 23 24 27 29 28
31 29 28 27 26 25 23 22 21 19 17 15 13 13 12 11 9 9 10 10 5 9 14 11 11 15 18 20 23 24 28 32 33 29 26 24 24 20 37 24 28 30 22 22 24 26 25
32 31 29 28 28 26 26 24 22 21 20 17 15 15 15 13 9 10 11 10 12 12 17 17 17 17 18 24 28 27 27 24 20 22 21 25 22 20 29 23 14 21 16 21 26 27 28
32 31 30 29 28 27 26 24 23 23 22 21 18 17 17 17 12 13 12 13 13 13 14 15 16 18 26 19 18 16 18 9 13 19 18 23 21 18 14 19 27 31 26 26 28 26 20
32 31 30 29 28 27 26 25 25 24 24 23 21 20 19 18 19 12 14 14 15 12 13 11 16 17 14 11 6 5 7 16 7 11 2 10 20 27 17 8 8 13 13 20 16 26 24
32 31 30 29 28 27 26 26 25 25 24 24 23 22 22 20 18 16 16 16 13 15 16 15 10 9 10 8 8 9 12 13 10 12 15 15 15 20 23 18 16 15 14 22 15 16 16
33 31 30 29 28 27 27 26 25 25 25 25 24 24 24 23 20 21 18 18 19 21 16 12 17 8 6 9 7 8 8 8 13 16 17 22 18 23 20 17 13 9 15 17 18 26 20
33 31 30 29 28 27 27 26 26 26 25 26 26 24 25 26 20 21 21 22 20 16 17 19 19 9 6 8 9 10 14 15 21 32 20 19 20 27 27 21 27 30 30 28 33 20 25

GFSGBSN_700_spd_237.txt.gz
Wind_Speed
1 2 1 1 0 0 0 1 1 1 1 1 1 1 1 2 4 5 7 8 10 11 12 13 14 14 12 13 21 16 17 17 21 21 22 20 17 23 27 27 25 28 31 29 32 29 28
1 1 1 1 1 1 1 0 0 0 1 2 2 2 4 5 7 8 9 10 10 10 11 11 12 12 13 17 19 16 18 18 19 22 22 23 24 26 28 30 28 32 27 28 29 33 29
1 1 1 1 2 2 3 2 2 3 3 3 3 4 6 7 7 8 9 9 11 12 12 11 11 10 11 12 17 19 19 21 21 23 24 24 23 28 30 33 30 34 36 38 35 35 37
0 2 2 2 2 3 3 3 3 3 3 3 3 4 5 6 7 8 10 11 12 13 12 11 10 10 8 10 11 15 17 17 21 24 25 23 26 29 31 33 33 26 32 41 45 37 39
1 1 1 1 2 3 3 3 3 3 3 3 3 4 5 6 6 8 10 10 11 13 12 9 8 7 5 6 11 15 18 18 20 22 24 24 24 30 30 32 34 35 41 38 43 40 36
3 1 1 1 2 2 2 3 3 3 3 3 3 4 5 6 8 10 12 12 14 11 9 8 2 3 8 10 12 15 18 21 21 23 23 21 20 27 34 29 35 29 35 40 44 33 24
4 3 3 1 0 1 1 2 2 2 2 3 4 5 6 8 9 11 14 10 11 7 10 7 8 10 10 13 13 15 17 23 24 20 21 14 19 30 32 33 37 39 36 34 35 35 33
6 5 4 2 1 1 1 2 2 2 2 3 4 5 7 8 9 11 12 12 12 10 8 10 13 17 18 18 19 23 27 31 24 28 25 19 24 25 27 32 32 36 39 44 44 34 31
8 7 5 4 4 4 3 2 2 2 2 3 4 5 6 7 8 11 12 14 14 11 9 17 17 21 20 21 14 19 29 22 27 26 26 24 27 27 29 32 37 39 43 41 40 34 40
10 8 7 5 5 5 4 3 2 2 2 3 3 4 5 7 8 11 12 15 13 7 7 12 11 14 17 13 4 21 29 29 25 31 28 21 29 24 29 33 29 41 38 39 40 34 34
13 10 9 7 7 6 5 4 3 2 2 3 4 5 5 7 9 11 12 14 10 6 5 8 8 13 17 8 13 20 25 29 23 27 28 31 28 27 33 34 28 31 26 39 39 37 36
15 14 12 10 9 7 6 4 3 2 2 3 4 4 6 8 9 10 13 13 9 5 3 4 4 16 15 8 11 15 19 18 25 31 27 34 20 23 31 32 20 25 30 31 33 39 26
18 17 14 12 10 9 7 5 4 3 3 3 4 5 5 7 8 9 11 10 4 8 5 6 14 15 14 13 12 16 21 23 20 26 34 37 26 25 11 21 29 25 26 16 16 17 12
20 19 17 14 12 11 9 7 5 4 3 4 4 5 5 6 6 8 10 4 7 5 3 10 12 10 7 11 13 18 21 16 11 22 26 18 30 23 17 15 25 26 23 12 10 9 13
23 22 20 17 15 13 11 9 7 6 4 4 4 4 4 5 6 6 8 7 4 3 6 10 8 3 5 11 14 17 15 6 15 23 13 16 19 36 17 15 16 19 25 22 22 21 15
26 24 22 19 17 16 14 12 9 8 7 5 4 3 4 5 6 5 5 6 5 2 6 5 6 4 12 16 13 13 10 10 15 15 15 15 27 17 31 20 7 16 15 14 13 3 6
29 27 25 23 21 18 17 14 12 10 9 7 6 4 4 4 5 4 4 4 3 3 5 4 4 8 9 12 12 13 5 15 15 21 15 18 12 35 29 21 28 25 23 17 5 4 3
32 30 28 26 24 21 19 17 15 13 11 9 7 5 6 4 4 3 5 5 3 2 4 6 5 5 8 14 15 9 7 8 19 19 20 15 16 21 35 18 12 10 15 25 8 10 13
35 32 30 28 26 23 21 20 18 16 13 11 8 6 5 4 3 3 4 5 4 2 5 4 5 8 9 11 9 5 14 12 18 19 14 20 8 19 30 7 12 23 16 21 14 12 10
37 34 32 30 28 25 23 22 20 18 16 13 10 6 6 6 5 5 3 3 4 7 4 5 6 8 7 10 7 13 23 18 22 22 20 16 15 12 15 23 27 31 24 22 16 11 18
38 36 34 32 29 27 25 23 22 20 18 15 12 10 8 5 6 5 4 5 5 5 7 7 5 6 9 14 22 19 16 24 24 19 8 8 17 16 21 22 22 26 27 25 21 19 21
38 36 35 33 31 29 27 25 24 22 20 17 14 13 11 8 7 5 5 4 7 5 7 10 12 13 14 16 18 29 27 25 28 27 13 9 14 15 31 28 26 29 31 26 24 20 21
38 37 36 34 32 29 28 26 26 24 22 20 17 16 13 11 9 7 5 5 5 7 11 11 12 16 20 19 20 26 28 27 29 28 21 21 19 15 14 8 20 24 21 17 18 22 22
38 37 36 34 32 30 28 27 27 25 24 21 20 18 15 14 12 8 7 7 7 9 13 16 16 17 17 20 24 27 21 15 8 3 6 11 9 12 16 15 3 8 9 15 19 19 22
38 37 36 34 32 31 31 29 28 26 25 23 22 21 21 17 14 11 9 11 11 12 15 13 12 19 23 24 25 15 11 8 11 7 15 16 10 12 6 6 20 15 15 11 12 16 17
38 37 35 34 32 31 30 28 27 27 26 26 25 24 23 19 18 16 15 12 13 15 14 14 17 18 20 15 9 4 4 7 5 5 7 5 13 22 14 7 5 6 17 19 24 18 11
38 36 36 34 33 32 30 29 28 28 28 28 27 25 26 21 19 20 16 16 13 13 15 16 20 16 13 11 9 6 7 6 5 5 7 11 6 18 29 15 8 13 13 22 10 13 20
38 36 36 35 33 32 30 30 29 29 29 28 25 28 27 25 22 21 20 20 17 16 17 14 14 12 10 10 7 7 9 9 10 15 13 13 12 14 10 15 11 11 28 20 25 29 25
38 37 36 35 33 32 31 30 29 29 29 29 28 27 28 27 21 18 17 15 17 18 19 13 14 16 10 9 9 9 13 13 18 20 25 10 8 11 12 18 21 31 22 27 27 30 24

GFSGBSN_700_spd_240.txt.gz
Wind_Speed
4 4 1 1 1 1 2 3 4 5 5 5 5 5 4 4 4 5 6 7 8 9 9 10 11 10 13 13 15 15 14 15 15 16 16 17 19 20 21 24 27 30 32 33 33 32 31
4 3 2 1 2 2 2 3 3 4 4 4 4 3 2 1 1 2 3 5 5 6 8 8 7 8 10 12 12 10 12 13 14 13 16 18 19 23 25 27 25 31 34 36 37 36 35
4 3 2 1 2 3 4 4 5 5 4 4 4 3 3 2 2 4 5 6 7 7 8 8 8 8 9 10 8 10 12 13 15 16 14 17 18 22 26 27 29 35 37 37 38 37 38
5 3 2 2 2 4 5 5 6 5 5 5 4 4 3 2 3 5 6 7 7 7 7 6 6 6 4 6 8 7 9 13 17 17 17 17 19 22 25 29 31 33 36 41 36 34 38
4 4 1 2 2 3 4 5 5 5 4 4 3 3 2 3 4 5 6 6 6 7 7 5 3 1 3 3 6 7 8 10 12 16 18 18 21 20 23 24 29 33 40 42 44 34 30
5 5 4 2 2 2 3 3 4 3 3 3 2 1 0 1 2 4 5 5 6 6 5 3 1 4 2 3 5 5 7 10 10 10 12 14 18 19 18 19 21 25 30 38 40 31 23
7 7 6 4 3 2 2 3 2 2 2 2 2 2 1 0 1 3 4 5 4 0 0 5 7 7 4 4 6 11 13 15 12 13 15 16 18 19 22 18 24 30 33 39 43 35 26
10 8 7 6 5 4 2 1 2 2 3 3 2 2 1 0 2 3 5 5 1 5 13 10 9 8 8 6 9 20 23 24 22 24 27 24 20 20 20 23 24 23 32 43 41 32 30
12 10 8 7 6 5 4 3 3 4 4 3 2 2 1 1 2 3 4 4 1 11 11 13 13 14 11 7 12 19 21 25 23 26 27 21 24 21 23 22 28 29 25 28 40 34 37
14 12 10 8 8 7 6 6 6 5 4 3 2 1 1 2 2 4 5 5 3 10 6 8 13 12 13 8 13 15 15 22 22 23 24 15 28 20 17 22 24 33 25 25 27 26 33
16 15 13 11 9 9 8 7 7 6 5 4 2 2 2 1 2 4 5 5 5 7 4 4 7 12 13 10 9 9 13 20 20 13 21 24 23 14 19 26 24 32 22 25 29 30 31
20 18 15 13 12 11 10 9 9 8 6 4 3 2 2 2 2 3 3 3 6 4 3 2 5 11 8 9 6 9 14 13 13 15 21 27 16 17 11 12 14 17 23 25 25 25 17
22 21 18 16 14 13 12 11 10 8 7 5 4 4 3 2 2 2 3 3 5 6 4 3 5 4 4 4 4 11 12 12 15 19 28 22 14 22 16 19 19 10 14 8 9 9 13
26 24 21 19 18 16 14 12 11 9 8 7 6 5 4 3 1 1 2 4 3 5 4 4 2 5 1 6 6 10 6 7 14 20 19 17 15 24 16 30 22 21 10 6 6 2 4
30 27 25 23 21 19 17 15 13 11 10 9 8 7 5 3 2 1 1 3 3 6 2 1 4 4 5 7 5 9 7 7 15 18 16 12 12 31 6 22 9 9 12 20 10 18 8
33 31 29 27 25 22 20 17 15 13 11 10 8 8 7 5 3 2 2 3 6 5 1 1 3 1 5 8 7 11 3 5 11 16 13 10 20 15 29 17 8 7 9 9 2 2 5
36 35 32 30 28 26 23 20 18 16 13 11 10 9 9 6 4 4 3 4 4 4 2 2 2 3 3 7 8 9 3 3 11 15 16 19 9 27 23 15 18 16 23 8 2 4 3
40 38 36 34 32 29 27 24 21 19 16 13 11 11 11 8 7 6 4 4 4 4 3 3 3 2 5 8 8 4 4 6 13 17 17 14 15 18 32 5 9 16 20 21 6 6 5
42 40 39 37 34 31 29 27 24 22 19 16 14 13 11 10 8 8 5 4 5 5 5 3 3 6 6 6 4 3 7 9 17 20 13 18 5 14 12 10 11 19 19 12 15 5 6
43 41 41 38 36 34 32 30 27 25 22 19 16 12 12 13 11 10 7 7 7 7 6 5 5 7 7 8 8 7 13 13 18 17 16 18 14 13 14 16 24 31 28 18 13 12 14
44 43 42 40 39 36 34 32 30 27 24 21 19 17 15 9 14 10 9 7 7 6 6 6 5 8 10 8 15 11 9 17 17 10 4 8 17 18 24 27 27 30 33 31 27 23 18
44 42 42 40 38 37 35 33 31 30 26 24 22 20 16 15 15 13 12 11 10 9 9 8 8 9 12 13 14 20 19 17 17 14 19 18 16 17 28 25 20 20 22 20 18 21 25
43 43 42 41 40 38 36 35 33 32 29 27 26 22 20 17 16 15 12 11 10 11 9 9 10 12 13 14 13 16 19 19 19 19 14 15 6 5 6 10 18 5 16 15 15 13 14
42 42 42 41 40 39 37 37 34 33 31 28 27 24 22 20 18 15 14 13 11 10 10 10 12 13 13 14 16 16 17 11 6 4 5 8 5 4 10 11 3 1 10 6 4 3 10
42 42 41 40 40 39 38 37 36 34 33 31 29 27 24 22 17 18 15 14 13 13 12 11 13 12 15 15 19 11 7 2 2 7 4 11 15 7 5 5 18 12 5 7 13 10 14
42 41 40 39 39 39 38 38 37 35 34 32 31 28 26 22 20 18 19 18 15 13 13 14 13 14 15 17 11 5 3 4 2 5 3 3 8 13 7 5 4 5 12 15 17 22 13
41 40 39 39 38 38 38 37 36 35 34 33 33 30 28 24 23 19 20 17 17 16 15 12 12 15 14 12 10 6 4 5 4 4 6 3 9 21 21 15 12 16 18 18 7 11 21
40 39 38 38 37 37 37 37 37 36 35 34 32 32 28 26 24 20 21 20 20 18 15 15 13 15 13 11 7 7 8 8 10 12 9 12 11 9 11 10 10 16 18 17 21 27 28
39 39 39 37 37 36 36 36 36 35 35 34 33 31 30 28 22 25 25 21 20 19 19 18 17 13 9 9 8 7 10 10 15 13 17 12 17 11 16 12 12 17 32 31 27 26 24